Location: Lower Kingswood
(51.2667°N, 0.2167°W)
Time: 04:57:16
(UTC+00:00)

Daily predictions for brighter satellites

Satellite Brightness Start Highest point End
(mag) Time Altitude Azimuth Time Altitude Azimuth Time Altitude Azimuth
ATLAS 3B R/B 4.4 00:03:28 10° WNW 00:09:59 32° N 00:16:46 10° ENE
CZ-4C R/B 4.2 00:08:36 10° NW 00:11:30 29° NW 00:11:30 29° NW
CENTAUR R/B 4.5 00:09:41 10° NW 00:13:27 28° WNW 00:13:27 28° WNW
Cosmos 2082 Rocket 4.4 01:02:42 18° ENE 01:02:42 18° ENE 01:05:01 10° NE
Cosmos 1833 Rocket 4.2 01:18:16 32° NE 01:18:16 32° NE 01:21:18 10° NE
CZ-2C R/B 4.4 01:27:27 24° ENE 01:28:08 25° ENE 01:32:21 10° N
SL-16 R/B 3.3 01:28:59 49° NE 01:28:59 49° NE 01:34:39 10° N
Cosmos 1980 Rocket 4.1 01:28:54 10° NNW 01:30:49 22° NNW 01:30:49 22° NNW
SJ 16-02 4.0 01:38:10 15° N 01:38:10 15° N 01:39:09 10° N
SL-16 R/B 3.8 01:35:01 10° NNW 01:40:05 32° NE 01:45:08 10° ESE
Resurs 1-4 Rocket 3.3 01:39:43 10° NNE 01:43:07 38° NE 01:43:07 38° NE
CZ-2D R/B 3.3 01:40:34 10° NNE 01:44:21 41° NE 01:44:21 41° NE
USA 281 3.9 01:40:02 10° NE 01:46:05 45° ESE 01:46:05 45° ESE
USA 215 4.2 01:44:40 10° ESE 01:48:21 37° ESE 01:48:21 37° ESE
MSX 4.4 01:52:06 10° NNE 01:56:52 52° ENE 01:56:52 52° ENE
ATLAS 3B R/B 4.0 01:55:28 10° NW 02:02:40 43° NNE 02:10:01 10° E
Cosmos 2322 Rocket 3.8 01:59:14 10° NNW 02:04:18 32° NE 02:09:21 10° ESE
NOSS 3-4 (A) 3.7 02:13:22 61° N 02:13:22 61° N 02:18:50 10° NE
NOSS 3-4 (C) 3.7 02:13:29 61° N 02:13:29 61° N 02:18:56 10° NE
COSMOS 2406 3.7 02:14:46 59° ENE 02:14:46 59° ENE 02:19:46 10° NE
Cosmos 1428 Rocket 4.5 02:16:56 74° NE 02:16:56 74° NE 02:22:37 10° NNE
ASTEX 1 4.3 02:12:13 10° NNE 02:16:10 46° NE 02:16:10 46° NE
Lacrosse 4 Rocket 3.3 02:23:45 29° ENE 02:23:45 29° ENE 02:26:10 10° NE
Cosmos 1680 Rocket 4.3 02:19:46 10° NNW 02:24:58 50° ENE 02:27:56 24° ESE
ADEOS II 2.4 02:20:47 10° NNE 02:25:14 62° NE 02:25:14 62° NE
Cosmos 2195 Rocket 4.4 02:26:48 82° NNE 02:26:48 82° NNE 02:32:42 10° N
Cosmos 2360 Rocket 3.6 02:28:22 10° NNW 02:33:39 37° NE 02:38:54 10° ESE
Cosmos 1553 Rocket 4.2 02:28:51 10° N 02:34:58 67° ENE 02:37:03 42° SE
ATLAS 5 CENTAUR R/B 3.0 02:36:43 31° NNE 02:36:43 31° NNE 02:39:08 10° NE
Cosmos-2242 4.2 02:37:56 39° NE 02:37:56 39° NE 02:40:48 10° NNE
Cosmos 2333 Rocket 3.8 02:31:42 10° NNW 02:36:53 33° NE 02:42:02 10° ESE
Thor Agena Rocket 4.3 02:32:49 10° NNE 02:37:54 48° E 02:38:37 45° SE
Nadezhda 4 Rocket 4.4 02:40:18 48° NW 02:40:18 48° NW 02:45:46 10° N
Cosmos 2026 Rocket 3.8 02:42:02 82° WSW 02:42:12 84° W 02:48:22 10° N
Cosmos 304 Rocket 4.2 02:43:48 60° ENE 02:43:48 60° ENE 02:48:01 10° NNE
Cosmos 2082 Rocket 2.1 02:44:33 80° NNW 02:44:33 80° NNW 02:50:09 10° NNE
NPP 4.3 02:42:15 10° N 02:46:35 45° NW 02:46:35 45° NW
Cosmos 1812 Rocket 4.2 02:48:13 56° NE 02:48:13 56° NE 02:51:59 10° NNE
Cosmos 1627 Rocket 4.3 02:49:15 74° WSW 02:49:31 76° W 02:55:44 10° N
CZ-4 R/B 4.0 02:45:29 10° NNE 02:49:51 67° ENE 02:49:51 67° ENE
ATLAS CENTAUR R/B 3.8 02:48:30 41° SSE 02:50:18 50° SE 03:01:03 10° ENE
Cosmos 1898 Rocket 3.9 02:51:03 52° SE 02:51:42 56° ESE 02:56:56 10° NNE
CZ-2C R/B 4.1 02:48:31 10° NNE 02:52:45 28° E 02:55:28 17° SE
IDEFIX/ARIANE 42P 3.2 02:48:34 10° N 02:52:46 43° NW 02:52:46 43° NW
NOSS 2-2 (E) 3.9 02:55:40 84° NE 02:55:40 84° NE 03:01:50 10° SE
NOSS 2-3 (E) 4.4 02:53:22 40° NW 02:55:46 79° SW 03:03:30 10° SE
Cosmos 44 3.8 02:58:37 51° SE 02:59:04 53° ESE 03:04:14 10° NE
Cosmos 1833 Rocket 3.8 02:59:58 30° NW 03:00:05 30° NW 03:05:01 10° NNE
Cosmos 990 Rocket 3.9 03:00:59 74° NW 03:00:59 74° NW 03:06:10 10° NNE
Cosmos 1937 Rocket 4.1 03:02:00 41° SSE 03:03:15 51° ESE 03:08:17 10° NNE
Aureole 1 Rocket 4.1 03:03:03 57° W 03:03:58 62° WNW 03:09:46 10° NNE
NOSS 3-1 (C) 4.2 02:57:25 10° NW 03:04:22 69° NE 03:12:54 10° SE
Cosmos 1092 Rocket 4.0 03:04:15 57° W 03:04:43 58° WNW 03:11:01 10° N
Meteor 2-17 Rocket 4.3 03:04:26 64° SW 03:05:13 73° WNW 03:11:19 10° N
ALOS 2.3 03:01:14 10° NNE 03:05:54 73° ESE 03:06:14 69° SE
ATLAS CENTAUR R/B 3.8 03:06:32 11° NNW 03:07:05 11° N 03:08:19 10° N
CZ-2C R/B 2.8 03:08:57 53° WNW 03:08:57 53° WNW 03:13:15 10° NNW
Cosmos 1417 Rocket 4.5 03:02:49 10° N 03:09:07 81° E 03:15:11 10° SSE
SL-16 R/B 3.4 03:14:05 32° WNW 03:14:05 32° WNW 03:18:12 10° NNW
NOSS 2-2 (D) 3.8 03:13:18 49° NW 03:14:37 89° ENE 03:20:44 10° SE
NOSS 2-2 (C) 3.8 03:15:56 47° NW 03:17:20 89° WSW 03:23:27 10° SE
Meteor 1-25 Rocket 4.1 03:13:07 10° NNW 03:18:48 71° W 03:20:47 42° S
CZ-2C R/B 3.3 03:14:51 10° NNE 03:20:43 79° ESE 03:23:22 34° S
IRS-1D 4.0 03:15:45 10° NNE 03:21:05 62° ESE 03:24:00 26° S
RESURS DK-1 2.9 03:21:54 46° NNW 03:21:54 46° NNW 03:25:19 10° NNE
BlueWalker 3 2.2 03:21:58 63° NNE 03:21:58 63° NNE 03:25:33 10° ENE
Meteor 1-20 Rocket 4.3 03:17:37 10° NNW 03:23:19 57° W 03:24:07 52° SW
Cosmos 2219 Rocket 3.4 03:18:31 10° NNW 03:23:54 43° NE 03:29:15 10° ESE
Resurs 1-4 Rocket 3.3 03:20:03 10° N 03:24:10 27° NW 03:24:10 27° NW
SL-16 R/B 2.1 03:18:58 10° NW 03:24:35 62° WSW 03:30:10 10° SSE
CZ-2D R/B 3.2 03:21:04 10° N 03:25:38 29° WNW 03:25:38 29° WNW
Cosmos 1933 3.4 03:25:46 64° SE 03:26:10 71° E 03:30:08 10° NNE
FENGYUN 3A 3.7 03:25:13 10° N 03:30:30 57° WNW 03:31:30 49° WSW
USA 281 3.5 03:24:37 10° NNE 03:30:54 50° NW 03:32:57 38° W
Cosmos 372 Rocket 3.9 03:29:24 45° SSW 03:31:00 82° ESE 03:36:08 10° NNE
Cosmos 1461 3.4 03:31:30 48° WNW 03:31:50 49° NW 03:36:15 10° NE
Cosmos 371 Rocket 3.8 03:33:36 40° WNW 03:33:50 40° WNW 03:38:26 10° NNE
USA 215 3.6 03:28:35 10° SSE 03:34:41 40° SW 03:35:44 38° WSW
ATLAS 2AS CENTAUR R/B 3.0 03:33:16 29° SSW 03:37:26 72° SE 03:44:38 10° NE
S3M 3.9 03:31:37 10° NNW 03:38:02 78° W 03:44:22 10° S
Cosmos 1812 3.5 03:39:25 35° NNW 03:39:25 35° NNW 03:42:02 10° N
SL-24 DEB 4.2 03:38:05 50° SW 03:39:05 63° W 03:43:47 10° N
YAOGAN 6 3.3 03:38:25 10° NNE 03:41:43 48° E 03:43:05 29° SSE
Iridium 4 Rocket 3.9 03:39:01 10° NNW 03:44:05 41° W 03:44:28 40° W
Cosmos 2237 4.4 03:38:51 10° NW 03:44:20 47° WSW 03:49:46 10° S
METEOR-M 4.1 03:39:16 10° NNE 03:44:40 82° ESE 03:48:31 20° SSW
Cosmos 494 Rocket 4.3 03:39:33 10° NNW 03:44:43 66° ENE 03:49:49 10° SE
Cosmos 2315 Rocket 4.1 03:38:50 10° N 03:45:15 82° E 03:51:38 10° SSE
Cosmos 1766 Rocket 3.4 03:41:29 10° NNW 03:45:51 70° W 03:48:25 24° S
Cosmos 2322 Rocket 2.1 03:43:09 10° NW 03:48:42 60° WSW 03:54:15 10° SSE
Cosmos 2112 Rocket 4.2 03:45:22 10° NW 03:50:28 46° WSW 03:55:33 10° S
Okean 3 Rocket 3.5 03:46:25 10° N 03:50:57 87° E 03:55:23 10° S
SL-4 R/B 2.5 03:51:57 34° S 03:51:57 34° S 03:54:19 10° SE
Cosmos 1743 4.4 03:48:55 10° N 03:52:23 34° ENE 03:55:50 10° SE
ATLAS 3B R/B 2.9 03:46:28 10° NW 03:54:12 84° SW 04:02:01 10° SE
Envisat 3.1 03:49:31 10° NNE 03:54:38 77° ESE 03:59:23 12° S
Cosmos 1048 Rocket 4.3 03:51:41 10° NNW 03:57:01 71° ENE 04:02:14 10° SSE
COSMOS 2406 4.2 03:56:49 26° WNW 03:58:46 32° NW 04:03:55 10° NNE
Cosmos 883 Rocket 4.4 03:53:45 10° NNW 04:00:03 74° W 04:06:22 10° S
NOSS 7 (E) 4.4 03:58:55 27° NW 04:00:29 74° NE 04:04:03 10° SE
Lacrosse 4 Rocket 2.4 03:59:50 30° WNW 04:00:41 32° NW 04:04:36 10° NNE
Cosmos 405 Rocket 4.3 04:02:45 20° NW 04:02:45 20° NW 04:04:59 10° NNW
Cosmos 1782 3.1 04:04:01 39° W 04:04:27 41° WNW 04:08:10 10° N
ADEOS II 3.4 04:01:18 10° N 04:05:11 21° NW 04:06:07 20° WNW
Cosmos 489 Rocket 4.5 04:00:43 17° SSW 04:05:45 86° WNW 04:12:10 10° NNE
Cosmos 1680 Rocket 4.2 04:02:14 10° NW 04:06:50 30° W 04:07:46 28° WSW
Cosmos 292 Rocket 4.2 04:02:32 11° S 04:07:02 63° ESE 04:11:47 10° NNE
Meteor 1-26 Rocket 4.2 04:02:06 10° SSW 04:07:58 81° WNW 04:13:48 10° N
Cosmos 1484 Rocket 3.6 04:04:32 10° NNE 04:08:05 46° E 04:11:35 10° S
Cosmos 1842 Rocket 3.7 04:04:53 10° S 04:09:20 78° E 04:13:50 10° NNE
COBE Rocket 3.9 04:07:10 10° NNE 04:11:55 78° ESE 04:16:45 10° S
GP-B 3.5 04:07:49 10° SSE 04:12:12 66° E 04:16:36 10° N
Cosmos 2266 Rocket 4.0 04:07:39 13° SSW 04:13:10 62° WNW 04:19:32 10° N
Lacrosse 5 rocket 3.9 04:10:47 10° SSE 04:13:10 15° SE 04:15:30 10° E
CBERS-1 4.1 04:08:27 10° NNE 04:13:36 81° ESE 04:18:43 10° SSW
NOSS 3-1 (A) 4.1 04:06:31 10° NW 04:13:38 86° NE 04:22:20 10° SE
Cosmos 2221 2.6 04:13:15 25° SW 04:15:30 52° WNW 04:19:45 10° N
Thor Agena Rocket 4.4 04:12:25 10° N 04:17:01 32° WNW 04:19:10 23° W
Helios 1A 3.1 04:13:26 10° SSE 04:17:32 77° ENE 04:21:39 10° NNW
Cosmos 2360 Rocket 2.3 04:12:22 10° NW 04:17:50 50° WSW 04:23:17 10° S
Cosmos 1867 4.3 04:13:18 10° NW 04:18:43 57° NE 04:24:06 10° ESE
Cosmos 2333 4.2 04:13:58 10° NW 04:19:40 69° WSW 04:25:23 10° SSE
ATLAS 5 CENTAUR R/B 3.3 04:17:52 15° NW 04:20:00 21° NNW 04:23:27 10° NE
Cosmos 2333 Rocket 2.2 04:15:52 10° NW 04:21:30 59° WSW 04:27:07 10° SSE
Cosmos 2237 Rocket 4.0 04:18:48 10° NNW 04:23:53 32° NE 04:28:57 10° ESE
Cosmos 2322 3.9 04:20:08 10° NNW 04:25:53 76° ENE 04:31:34 10° SE
COSMOS 2428 3.2 04:20:46 10° NNW 04:26:27 64° NE 04:32:07 10° SE
ARIANE 5 R/B 3.5 04:24:04 10° NNE 04:29:01 49° E 04:33:51 10° S
Cosmos 2082 Rocket 3.7 04:26:24 16° WNW 04:29:22 23° NW 04:33:51 10° NNE
Cosmos 1743 Rocket 3.8 04:25:26 10° N 04:29:46 71° ENE 04:34:05 10° SSE
Cosmos 1515 3.6 04:27:45 13° SSW 04:30:51 58° WNW 04:34:29 10° N
CZ-2C R/B 2.7 04:26:26 10° N 04:31:06 44° WNW 04:34:47 15° SW
Cosmos 1900 4.4 04:27:01 10° NW 04:32:09 87° SW 04:37:17 10° SE
Cosmos 2285 Rocket 4.1 04:26:16 10° NNW 04:32:23 54° WSW 04:38:30 10° S
Cosmos 1805 Rocket 3.8 04:29:23 10° N 04:33:44 73° ENE 04:38:03 10° SSE
H-2A R/B 3.6 04:29:40 10° NNE 04:34:47 40° E 04:39:52 10° SSE
ERS-2 3.6 04:32:09 10° NNE 04:35:05 33° E 04:37:58 10° SSE
PAYLOAD A 4.2 04:30:58 10° N 04:35:31 45° WNW 04:39:58 11° SW
Cosmos 1271 Rocket 2.7 04:32:40 10° N 04:36:30 82° ENE 04:40:13 10° SSE
Cosmos 1655 Rocket 4.2 04:31:40 10° SSW 04:37:54 53° WNW 04:44:11 10° N
Cosmos 44 4.2 04:37:01 18° W 04:40:30 40° NW 04:45:35 10° NE
ALOS 3.8 04:39:28 10° NNW 04:42:42 19° WNW 04:44:37 15° W
Cosmos 1937 Rocket 4.4 04:42:10 16° WSW 04:45:26 31° NW 04:50:03 10° N
ATLAS CENTAUR R/B 3.8 04:45:07 10° NNW 04:46:45 12° NNE 04:48:22 10° NE
Cosmos 1939 Rocket 4.0 04:44:52 10° NNE 04:48:33 45° E 04:52:15 10° S
SKYMED 2 4.2 04:44:52 10° SSE 04:49:09 62° ENE 04:53:27 10° N
Meteor 2-6 Rocket 4.1 04:48:36 10° SSW 04:54:00 67° WNW 04:59:24 10° N
NOSS 3-1 (C) 4.4 04:48:21 10° NW 04:55:15 43° WSW 05:03:23 10° S
Cosmos 1408 Rocket 4.0 04:51:31 10° NNW 04:55:35 38° W 04:59:40 10° SSW
Cosmos 1833 4.2 04:51:04 10° SW 04:56:42 68° WNW 05:02:20 10° NNE
ATLAS CENTAUR R/B 4.3 04:52:23 13° WSW 04:59:11 74° NNW 05:14:02 10° ENE
BlueWalker 3 2.0 04:56:36 11° WNW 05:00:22 83° NNE 05:04:14 10° ESE
SL-27 R/B 2.0 04:59:50 10° SSW 05:02:55 74° WNW 05:06:05 10° NNE
NOSS 3 (A) 3.7 05:04:33 17° WSW 05:05:27 36° NW 05:07:03 10° NNE
Helios 1B rocket 4.5 05:02:43 10° NNE 05:06:21 32° E 05:09:57 10° SSE
SL-16 R/B 3.9 05:06:06 10° W 05:07:31 11° W 05:08:56 10° WSW
Cosmos 2219 Rocket 2.6 05:02:35 10° NW 05:07:53 42° WSW 05:13:09 10° S
SL-08 R/B 3.3 05:04:52 10° SSE 05:09:36 86° WSW 05:14:29 10° NNW
Cosmos 1536 2.8 05:09:36 10° NNW 05:13:27 55° W 05:17:13 10° S
YAOGAN 6 4.2 05:12:11 10° NNW 05:14:13 15° WNW 05:16:15 10° W
Sich 1 3.2 05:10:35 10° NNW 05:14:43 49° W 05:18:53 10° SSW
